• în România
  • Lista ţărilor
  • Pe 7 zile
  • Temperatura apei
  • Hartă satelitară
  • Meteo pe hartă
  • Widget-uri
  • user-avatar
    Intrare

    Meteo pe oră la Naftalan

    Astăzi, 20 Ianuarie, Vineri

    Timp Temperatura Precipitaţii Vânt Presiune Umiditate
    00:00 +2°C° 0,1 mm 6 m/s 774 mmHg 83%
    01:00 +2°C° 0 mm 6 m/s 774 mmHg 83%
    02:00 +2°C° 0 mm 6 m/s 774 mmHg 83%
    03:00 0°C° 0 mm 8 m/s 774 mmHg 81%
    04:00 0°C° 0 mm 7 m/s 774 mmHg 81%
    05:00 0°C° 0 mm 7 m/s 774 mmHg 80%
    06:00 0°C° 0 mm 7 m/s 774 mmHg 80%
    07:00 +1°C° 0 mm 6 m/s 774 mmHg 79%
    08:00 +1°C° 0 mm 6 m/s 774 mmHg 77%
    09:00 +2°C° 0 mm 6 m/s 774 mmHg 76%
    10:00 +2°C° 0 mm 6 m/s 774 mmHg 74%
    11:00 +3°C° 0 mm 5 m/s 774 mmHg 71%
    12:00 +5°C° 0 mm 5 m/s 773 mmHg 68%
    13:00 +5°C° 0 mm 5 m/s 773 mmHg 68%
    14:00 +5°C° 0 mm 4 m/s 773 mmHg 69%
    15:00 +5°C° 0 mm 4 m/s 772 mmHg 69%
    16:00 +4°C° 0 mm 4 m/s 772 mmHg 71%
    17:00 +4°C° 0 mm 4 m/s 772 mmHg 74%
    18:00 +4°C° 0 mm 4 m/s 772 mmHg 76%
    19:00 +4°C° 0 mm 3 m/s 772 mmHg 77%
    20:00 +3°C° 0 mm 3 m/s 772 mmHg 79%
    21:00 +3°C° 0 mm 3 m/s 772 mmHg 80%
    22:00 +3°C° 0 mm 3 m/s 772 mmHg 81%
    23:00 +3°C° 0 mm 3 m/s 772 mmHg 83%

    Mâine, 21 Ianuarie, Sâmbătă

    Timp Temperatura Precipitaţii Vânt Presiune Umiditate
    00:00 +3°C° 0 mm 3 m/s 772 mmHg 84%
    01:00 +2°C° 0,1 mm 3 m/s 771 mmHg 85%
    02:00 +2°C° 0,1 mm 3 m/s 771 mmHg 86%
    03:00 +2°C° 0,1 mm 3 m/s 771 mmHg 87%
    04:00 +1°C° 0,1 mm 3 m/s 771 mmHg 87%
    05:00 +1°C° 0,1 mm 3 m/s 771 mmHg 88%
    06:00 +1°C° 0,1 mm 3 m/s 771 mmHg 89%
    07:00 +2°C° 0,1 mm 3 m/s 771 mmHg 84%
    08:00 +2°C° 0,1 mm 3 m/s 771 mmHg 80%
    09:00 +3°C° 0,1 mm 3 m/s 771 mmHg 75%
    10:00 +4°C° 0 mm 3 m/s 771 mmHg 68%
    11:00 +5°C° 0 mm 3 m/s 771 mmHg 62%
    12:00 +7°C° 0 mm 3 m/s 771 mmHg 55%
    13:00 +8°C° 0 mm 3 m/s 771 mmHg 53%
    14:00 +8°C° 0 mm 3 m/s 770 mmHg 52%
    15:00 +8°C° 0 mm 2 m/s 770 mmHg 50%
    16:00 +7°C° 0 mm 2 m/s 770 mmHg 56%
    17:00 +6°C° 0 mm 2 m/s 770 mmHg 62%
    18:00 +5°C° 0 mm 1 m/s 770 mmHg 69%
    19:00 +5°C° 0 mm 1 m/s 770 mmHg 71%
    20:00 +4°C° 0 mm 1 m/s 770 mmHg 74%
    21:00 +4°C° 0 mm 1 m/s 770 mmHg 77%
    22:00 +4°C° 0 mm 1 m/s 770 mmHg 77%
    23:00 +4°C° 0 mm 1 m/s 769 mmHg 78%

    Poimâine, 22 Ianuarie, Duminică

    Timp Temperatura Precipitaţii Vânt Presiune Umiditate
    00:00 +3°C° 0 mm 1 m/s 769 mmHg 79%
    01:00 +3°C° 0 mm 1 m/s 769 mmHg 76%
    02:00 +2°C° 0 mm 2 m/s 769 mmHg 74%
    03:00 +1°C° 0 mm 3 m/s 769 mmHg 72%
    04:00 0°C° 0 mm 4 m/s 769 mmHg 71%
    05:00 -1°C° 0 mm 5 m/s 769 mmHg 70%
    06:00 -1°C° 0 mm 5 m/s 769 mmHg 69%
    07:00 -1°C° 0 mm 6 m/s 769 mmHg 63%
    08:00 0°C° 0 mm 7 m/s 769 mmHg 58%
    09:00 +2°C° 0 mm 7 m/s 770 mmHg 52%
    10:00 +3°C° 0 mm 7 m/s 770 mmHg 49%
    11:00 +4°C° 0 mm 6 m/s 770 mmHg 45%
    12:00 +5°C° 0 mm 6 m/s 769 mmHg 41%
    13:00 +6°C° 0 mm 5 m/s 770 mmHg 41%
    14:00 +6°C° 0 mm 4 m/s 770 mmHg 41%
    15:00 +8°C° 0 mm 3 m/s 770 mmHg 40%
    16:00 +6°C° 0 mm 4 m/s 771 mmHg 44%
    17:00 +5°C° 0 mm 5 m/s 772 mmHg 48%
    18:00 +3°C° 0 mm 6 m/s 773 mmHg 52%
    19:00 +1°C° 0,2 mm 8 m/s 774 mmHg 55%
    20:00 0°C° 0,2 mm 10 m/s 775 mmHg 59%
    21:00 -2°C° 0,2 mm 12 m/s 776 mmHg 63%
    22:00 -2°C° 0,1 mm 11 m/s 776 mmHg 64%
    23:00 -3°C° 0,1 mm 10 m/s 777 mmHg 64%

    23 Ianuarie, Luni

    Timp Temperatura Precipitaţii Vânt Presiune Umiditate
    00:00 -3°C° 0,1 mm 10 m/s 778 mmHg 65%
    01:00 -3°C° 0,1 mm 9 m/s 778 mmHg 67%
    02:00 -2°C° 0,1 mm 8 m/s 778 mmHg 69%
    03:00 -2°C° 0,1 mm 7 m/s 779 mmHg 70%
    04:00 -3°C° 0 mm 6 m/s 779 mmHg 71%
    05:00 -2°C° 0 mm 5 m/s 779 mmHg 72%
    06:00 -2°C° 0 mm 4 m/s 780 mmHg 74%
    07:00 0°C° 0 mm 3 m/s 780 mmHg 70%
    08:00 +1°C° 0 mm 3 m/s 780 mmHg 67%
    09:00 +3°C° 0 mm 2 m/s 781 mmHg 63%
    10:00 +4°C° 0 mm 2 m/s 780 mmHg 61%
    11:00 +4°C° 0 mm 3 m/s 780 mmHg 58%
    12:00 +5°C° 0 mm 3 m/s 780 mmHg 56%
    13:00 +5°C° 0 mm 3 m/s 779 mmHg 55%
    14:00 +5°C° 0 mm 3 m/s 779 mmHg 53%
    15:00 +7°C° 0 mm 3 m/s 778 mmHg 52%
    16:00 +4°C° 0 mm 3 m/s 778 mmHg 58%
    17:00 +3°C° 0 mm 3 m/s 778 mmHg 64%
    18:00 +2°C° 0 mm 3 m/s 778 mmHg 70%
    19:00 +1°C° 0 mm 3 m/s 778 mmHg 72%
    20:00 +1°C° 0 mm 3 m/s 778 mmHg 74%
    21:00 0°C° 0 mm 3 m/s 778 mmHg 75%
    22:00 0°C° 0 mm 3 m/s 778 mmHg 76%
    23:00 0°C° 0 mm 3 m/s 778 mmHg 76%

    24 Ianuarie, Marţi

    Timp Temperatura Precipitaţii Vânt Presiune Umiditate
    00:00 -1°C° 0 mm 2 m/s 778 mmHg 77%
    01:00 -1°C° 0 mm 2 m/s 778 mmHg 77%
    02:00 -1°C° 0 mm 2 m/s 777 mmHg 78%
    03:00 -1°C° 0 mm 2 m/s 777 mmHg 78%
    04:00 -1°C° 0 mm 2 m/s 777 mmHg 78%
    05:00 -1°C° 0 mm 2 m/s 777 mmHg 78%
    06:00 -1°C° 0 mm 2 m/s 777 mmHg 78%
    07:00 +1°C° 0 mm 2 m/s 777 mmHg 73%
    08:00 +2°C° 0 mm 2 m/s 777 mmHg 69%
    09:00 +4°C° 0 mm 2 m/s 777 mmHg 64%
    10:00 +4°C° 0 mm 3 m/s 776 mmHg 58%
    11:00 +7°C° 0 mm 3 m/s 776 mmHg 52%
    12:00 +7°C° 0 mm 4 m/s 775 mmHg 46%
    13:00 +7°C° 0 mm 4 m/s 774 mmHg 46%
    14:00 +8°C° 0 mm 4 m/s 774 mmHg 46%
    15:00 +8°C° 0 mm 5 m/s 773 mmHg 45%
    16:00 +6°C° 0 mm 5 m/s 773 mmHg 53%
    17:00 +3°C° 0 mm 5 m/s 773 mmHg 61%
    18:00 +1°C° 0 mm 5 m/s 773 mmHg 69%
    19:00 +1°C° 0 mm 5 m/s 773 mmHg 72%
    20:00 +1°C° 0 mm 5 m/s 772 mmHg 74%
    21:00 0°C° 0 mm 4 m/s 772 mmHg 77%
    22:00 0°C° 0 mm 4 m/s 772 mmHg 77%
    23:00 0°C° 0 mm 4 m/s 771 mmHg 78%

    25 Ianuarie, Miercuri

    Timp Temperatura Precipitaţii Vânt Presiune Umiditate
    00:00 0°C° 0 mm 4 m/s 771 mmHg 78%
    01:00 0°C° 0 mm 4 m/s 770 mmHg 75%
    02:00 +1°C° 0 mm 3 m/s 769 mmHg 73%
    03:00 0°C° 0 mm 3 m/s 769 mmHg 71%
    04:00 0°C° 0 mm 3 m/s 768 mmHg 69%
    05:00 0°C° 0 mm 3 m/s 768 mmHg 66%
    06:00 0°C° 0 mm 3 m/s 768 mmHg 64%
    07:00 +1°C° 0 mm 3 m/s 767 mmHg 60%
    08:00 +2°C° 0 mm 3 m/s 767 mmHg 55%
    09:00 +4°C° 0 mm 3 m/s 766 mmHg 51%
    10:00 +5°C° 0 mm 3 m/s 765 mmHg 46%
    11:00 +8°C° 0 mm 3 m/s 765 mmHg 42%
    12:00 +9°C° 0 mm 3 m/s 764 mmHg 37%
    13:00 +10°C° 0 mm 3 m/s 763 mmHg 37%
    14:00 +10°C° 0 mm 2 m/s 762 mmHg 37%
    15:00 +10°C° 0 mm 2 m/s 762 mmHg 37%
    16:00 +9°C° 0 mm 2 m/s 762 mmHg 41%
    17:00 +7°C° 0 mm 2 m/s 762 mmHg 44%
    18:00 +5°C° 0 mm 2 m/s 762 mmHg 48%
    19:00 +5°C° 0 mm 2 m/s 762 mmHg 47%
    20:00 +5°C° 0 mm 2 m/s 762 mmHg 45%
    21:00 +5°C° 0 mm 2 m/s 761 mmHg 44%
    22:00 +4°C° 0 mm 3 m/s 761 mmHg 43%
    23:00 +4°C° 0 mm 3 m/s 761 mmHg 42%
    Arată mai mult